Regional Weather Roundup
Issued by NWS

Home | Current Version | Previous Version | Text Only | Print | Product List | Glossary Off
Versions: 1 2 3 4 5 6 7 8 9 10 11 12 13 14 15 16 17 18 19 20 21 22 23 24 25 26 27 28 29 30 31 32 33 34 35 36 37 38 39 40 41 42 43 44 45 46 47 48 49 50

000
ASUS43 KFSD 261410
RWRSD

WEATHER ROUNDUP FOR SOUTH DAKOTA
NATIONAL WEATHER SERVICE SIOUX FALLS SD
800 AM CST MON JAN 26 2015

NOTE: "FAIR" INDICATES FEW OR NO CLOUDS BELOW 12,000 FEET WITH NO
SIGNIFICANT WEATHER AND/OR OBSTRUCTIONS TO VISIBILITY.


SDZ001>005-009-010-012>017-261500-
NORTHWEST AND NORTH CENTRAL SOUTH DAKOTA

CITY           SKY/WX    TMP DP  RH WIND       PRES   REMARKS
BUFFALO          N/A     38  30  73 W9        29.92R
FAITH            N/A     39  29  67 NW15      29.95R
MOBRIDGE       CLOUDY    38  33  82 NW10      29.87R
$$

SDZ012>016-024>037-041>051-057-063-072>074-261500-
SOUTHWEST AND SOUTH CENTRAL SOUTH DAKOTA

CITY           SKY/WX    TMP DP  RH WIND       PRES   REMARKS
RAPID CTY ARPT CLEAR     48  28  46 NW6       30.00S
PIERRE         PTCLDY    38  32  79 W13       29.91S
CUSTER         CLEAR     45  24  43 N3        30.09R
ELLSWORTH AFB  CLEAR     48  29  47 NW14      29.99R
PHILIP         CLEAR     37  29  72 W10       29.97R
PINE RIDGE     CLEAR     34  27  75 SW7       30.05S WCI  28
WINNER         FAIR      41  32  70 W10       29.95R
$$

SDZ004>011-016>023-039-040-261500-
NORTHEAST SOUTH DAKOTA

CITY           SKY/WX    TMP DP  RH WIND       PRES   REMARKS
ABERDEEN       MOCLDY    36  31  82 NW6       29.83R
WATERTOWN      CLEAR     33  29  85 NW12      29.78R WCI  24
SISSETON         N/A     38  32  79 NW16G26   29.75R
$$

SDZ017-020-022-023-036>040-048>070-261500-
SOUTHEAST SOUTH DAKOTA

CITY           SKY/WX    TMP DP  RH WIND       PRES   REMARKS
SIOUX FALLS    PTCLDY    36  32  85 NW16      29.81R
HURON          PTCLDY    36  32  85 NW10      29.85R
CHAMBERLAIN    CLEAR     40  33  77 W10       29.92R
MITCHELL       CLEAR     37  32  82 W10       29.88R
YANKTON        CLEAR     37  32  81 W13       29.86R
$$

ABBREVIATIONS USED IN REMARKS
   TC - TEMPERATURE IN CELSIUS
  WCI - WIND CHILL INDEX
   HX - HEAT INDEX
  VSB - VISIBILITY



USA.gov is the U.S. government's official web portal to all federal, state and local government web resources and services.